
    P/2008 O2 (McNaught)
Epoch 2009 May 9.0 TT = JDT 2454960.5  
T 2009 Apr. 21.60813 TT                                 Nakano
q   3.8038102            (2000.0)            P               Q
n   0.10347242     Peri.   27.46474     +0.98965764     +0.10938388
a   4.4935161      Node   325.86012     -0.14180696     +0.84362098
e   0.1534891      Incl.    9.51849     +0.02164576     +0.52567938
P   9.53
From 336 observations 2008 July 28-2009 Aug. 20, mean residual 0".57.

NAKANO
         **** Don't distribute anyone except personal use only ****
           (C) Copyright 2009 Orbit.Astro.Assoc./ComputingSection
write mail from CFAD0::NAKANO on 2009-09-05 06:52:50(JST).
 
 
    P/2008 O2 (McNaught)
Epoch 2009 May 9.0 TT = JDT 2454960.5  
T 2009 Apr. 21.79618 TT                                 Nakano
q   3.8035954            (2000.0)            P               Q
n   0.10346835     Peri.   27.49378     +0.98971359     +0.10887898
a   4.4936341      Node   325.86033     -0.14137498     +0.84369508
e   0.1535592      Incl.    9.51824     +0.02191198     +0.52566528
P   9.53 (+/- 0.06 day)
From 323 observations 2008 July 28-Nov. 27, mean residual 0".55.

NAKANO
         **** Don't distribute anyone except personal use only ****
                (C) Copyright 2008 OAA/ComputingSection
write mail from CFAD0::NAKANO on 2008-12-18 03:31:25(JST).
 

    P/2008 O2 (McNaught)

Epoch 2009 May 9.0 TT = JDT 2454960.5  

T 2009 Apr. 21.85954 TT                                 Nakano

q   3.8033750            (2000.0)            P               Q

n   0.10346430     Peri.   27.50566     +0.98973785     +0.10866534

a   4.4937514      Node   325.86089     -0.14118823     +0.84373119

e   0.1536303      Incl.    9.51751     +0.02201975     +0.52565152

P   9.53 (+/- 0.24 day)

From 302 observations 2008 July 28-Sept. 29, mean residual 0".54.


NAKANO

         **** Don't distribute anyone except personal use only ****

                (C) Copyright 2008 OAA/ComputingSection

write mail from CFAD0::NAKANO on 2008-10-05 06:57:03(JST).



    P/2008 O2 (McNaught)

T 2009 Apr. 21.68645 TT                                 Nakano

q   3.8011633            (2000.0)            P               Q

n   0.10310006     Peri.   27.52692     +0.98978966     +0.10827977

a   4.5043289      Node   325.86280     -0.14080279     +0.84386759

e   0.1561089      Incl.    9.50744     +0.02215879     +0.52551212

P   9.56 (+/- 0.84 day)

From 232 observations 2008 July 28-Aug. 31.







◎P/2008 O2の軌道と予報位置



  山本速報2591に続く,その後の追跡観測が芸西(関勉),上尾(門田健一),

守山(井狩康一)から報告されています.光度は,8月3日に18.2等(関,N),

7日に17.4等(門田,T),9日に18.3等(井狩,以下,N光度),10日に18.0等

(関),13日に17.5等,17日に17.8等,18.3等(井狩)と定まりません.

  なお,YC 2591の軌道と比べるとわかるとおり,軌道が大きく変わった.



    P/2008 O2 (McNaught)

T 2009 Apr. 21.25340 TT                                 Nakano

q   3.7998404            (2000.0)            P               Q

n   0.10306882     Peri.   27.48652     +0.98972893     +0.10890043

a   4.5052390      Node   325.86787     -0.14128857     +0.84383222

e   0.1565730      Incl.    9.50054     +0.02177590     +0.52544066

P   9.56 (+/- 1.49 days)

From 184 observations 2008 July 28-Aug. 24.

 

Date/        TT  R.A.(2000) Decl.     Delta   r     Daily motion  Mag.  Moon Age

              h    h  m       。  ,                      ,  / PA 。  m1      。

2008 Aug. 25 14  21 13.09  -17 30.7   2.911  3.888     8.6 / 266  17.2  128  .32

          26 14  21 12.49  -17 31.4   2.915  3.887     8.4 / 266  17.2  143  .22

          27 14  21 11.91  -17 32.0   2.919  3.887     8.3 / 266  17.2  157  .13

          28 14  21 11.33  -17 32.5   2.924  3.886     8.2 / 266  17.3  171  .06

          29 14  21 10.75  -17 33.0   2.929  3.885     8.0 / 267  17.3  174  .02

          30 14  21 10.19  -17 33.5   2.934  3.884     7.9 / 267  17.3  160  .00

          31 14  21 09.64  -17 33.9   2.939  3.884     7.7 / 267  17.3  147  .01

     Sept. 1 14  21 09.10  -17 34.2   2.945  3.883     7.6 / 268  17.3  133  .04

           2 14  21 08.58  -17 34.5   2.950  3.882     7.4 / 268  17.3  120  .09

           3 14  21 08.06  -17 34.8   2.957  3.882     7.2 / 269  17.3  107  .15

           4 14  21 07.56  -17 34.9   2.963  3.881     7.0 / 269  17.3   95  .23

           5 14  21 07.07  -17 35.1   2.969  3.880     6.8 / 269  17.3   83  .31

           6 14  21 06.59  -17 35.1   2.976  3.880     6.6 / 270  17.3   71  .41

           7 14  21 06.12  -17 35.1   2.983  3.879     6.5 / 270  17.3   59  .50

           8 14  21 05.67  -17 35.1   2.991  3.878     6.3 / 271  17.3   47  .59

           9 14  21 05.23  -17 35.0   2.998  3.878     6.0 / 272  17.3   35  .69

          10 14  21 04.81  -17 34.8   3.006  3.877     5.8 / 272  17.3   23  .77

          11 14  21 04.40  -17 34.6   3.014  3.876     5.6 / 273  17.3   10  .85

          12 14  21 04.01  -17 34.3   3.022  3.876     5.4 / 274  17.3    3  .91

          13 14  21 03.63  -17 34.0   3.031  3.875     5.2 / 274  17.3   16  .96

          14 14  21 03.27  -17 33.5   3.039  3.874     5.0 / 275  17.3   29  .99

          15 14  21 02.92  -17 33.1   3.048  3.874     4.8 / 276  17.3   43 1.00

          16 14  21 02.59  -17 32.6   3.057  3.873     4.5 / 277  17.3   56  .98

          17 14  21 02.28  -17 32.0   3.067  3.872     4.3 / 279  17.3   71  .94

          18 14  21 01.98  -17 31.3   3.076  3.872     4.1 / 280  17.3   85  .87

          19 14  21 01.70  -17 30.6   3.086  3.871     3.9 / 281  17.4   99  .79

          20 14  21 01.43  -17 29.8   3.096  3.870     3.7 / 283  17.4  113  .68

          21 14  21 01.18  -17 29.0   3.106  3.870     3.4 / 285  17.4  128  .57

          22 14  21 00.95  -17 28.1   3.116  3.869     3.2 / 287  17.4  142  .46

          23 14  21 00.73  -17 27.1   3.127  3.868     3.0 / 290  17.4  156  .35

          24 14  21 00.54  -17 26.1   3.137  3.868     2.8 / 293  17.4  170  .24

          25 14  21 00.36  -17 25.0   3.148  3.867     2.6 / 296  17.4  176  .16

          26 14  21 00.19  -17 23.9   3.159  3.867     2.4 / 300  17.4  162  .08

          27 14  21 00.05  -17 22.7   3.170  3.866     2.2 / 305  17.4  149  .03

          28 14  20 59.92  -17 21.4   3.182  3.865     2.1 / 310  17.4  136  .01

          29 14  20 59.81  -17 20.1   3.193  3.865     1.9 / 317  17.4  123  .00

          30 14  20 59.72  -17 18.7   3.205  3.864     1.8 / 324  17.4  110  .02

     Oct.  1 14  20 59.64  -17 17.2   3.217  3.863     1.7 / 332  17.4   98  .05

NAKANO

         **** Don't distribute anyone except personal use only ****

                (C) Copyright 2008 OAA/ComputingSection

write mail from CFAD0::NAKANO on 2008-08-31 05:54:28(JST).



   C/2008 O2 (McNaught)

T 2009 Nov. 12.68831 TT                                 Nakano

q   1.3378305            (2000.0)            P               Q

                   Peri.  117.89307     +0.13345249     -0.94339080

                   Node   320.47596     +0.65510701     +0.31387907

e   1.0            Incl.   28.49864     +0.74365667     -0.10720879

From 71 observations 2008 July 28-Aug. 1.





0801(H55)

NAKANO

         **** Don't distribute anyone except personal use only ****

                (C) Copyright 2008 OAA/ComputingSection

write mail from CFAD0::NAKANO on 2008-08-02 06:17:22(JST).

◎C/2008 O2の軌道と予報位置    [From YC 2590]



マックノート新彗星  C/2008 O2 (McNaught)

     マックノート(R. H. McNaught)は,50-cm ウプサラ・シュミットで2008年

7月28日にやぎ座を撮影した捜索フレーム上の次の位置に17等級の新彗星を発見

した.発見時,彗星には,非常に集光した10"のコマと西南西に1'の尾が見られた.

発見翌日の7月29日にレモン山の1.5-m反射で,この彗星を観測したボアッティー

ニ(A. Boattini)によると,彗星には,10"〜12"のコマと西南西に2'の尾が見ら

れた.また,ティーモ(N. Teamo, French Polynesia)による35-cm望遠鏡での7

月30日の観測では,コマの視直径は約23",西南西に3'以上に伸びた尾が見られた.

さらに,イタリーのブッジー(L. Buzzi, Varese)も7月31日に60-cm反射で行な

った観測でも,コマと尾が見られるなど,彗星は,多くの観測者によって捕らえら

れた(IAUC 8963).守山の井狩康一氏(Y. Ikari, Moriyama)も,7月29日と31

日にこの彗星を捕らえているが,形状の報告はなかった.彗星は,17等級で観測さ

れている.



    2008 UT             α     (2000)     δ             Mag.

    July 28.69229   21h 30m 58s.41   -17゚ 00' 49".6      17.7



    OAA計算課では,2008年7月28日から8月2日までに行なわれた74個の観測か

ら,次の軌道を決定した.軌道改良に使用した最終観測は,八束の安部裕史氏(H. 

Abe, Yatsuka)によるもので,氏の核光度は17.3等であった.なお,彗星は,2009

年末頃には,6等級まで明るくなるだろう.



   T = 2009 Nov. 22.015 TT    ω = 120.529

                               Ω = 320.239    (2000.0)

   q =   1.26611 AU           i =  30.851





軌道と残差:



    C/2008 O2 (McNaught)

T 2009 Nov. 22.01477 TT                                 Nakano

q   1.2661086            (2000.0)            P               Q

                   Peri.  120.52940     +0.08247307     -0.94107628

                   Node   320.23898     +0.64393426     +0.30150093

e   1.0            Incl.   30.85094     +0.76062268     -0.15320779

From 74 observations 2008 July 28-Aug. 2.

 

Date/        TT  R.A.(2000) Decl.     Delta   r     Daily motion  Mag.  Moon Age

              h    h  m       。  ,                      ,  / PA 。  m1      。

2008 Aug.  1 12  21 28.61  -17 05.5   4.720  5.723     9.2 / 262  17.4  171  .00

           2 12  21 27.97  -17 06.8   4.708  5.714     9.3 / 262  17.4  174  .02

           3 12  21 27.33  -17 08.0   4.697  5.705     9.4 / 262  17.4  160  .06

           4 12  21 26.68  -17 09.3   4.687  5.696     9.4 / 262  17.4  146  .12

           5 12  21 26.03  -17 10.5   4.676  5.687     9.5 / 262  17.4  133  .19

           6 12  21 25.38  -17 11.8   4.666  5.678     9.5 / 263  17.4  120  .28

           7 12  21 24.72  -17 13.0   4.656  5.669     9.6 / 263  17.4  108  .37

           8 12  21 24.05  -17 14.2   4.647  5.660     9.6 / 263  17.4   95  .47

           9 12  21 23.39  -17 15.4   4.637  5.651     9.7 / 263  17.4   83  .56

          10 12  21 22.72  -17 16.6   4.628  5.642     9.7 / 263  17.3   71  .65

          11 12  21 22.05  -17 17.8   4.620  5.633     9.7 / 263  17.3   59  .74

          12 12  21 21.37  -17 19.0   4.612  5.624     9.8 / 263  17.3   47  .82

          13 12  21 20.69  -17 20.2   4.604  5.614     9.8 / 263  17.3   35  .89

          14 12  21 20.02  -17 21.3   4.596  5.605     9.8 / 263  17.3   23  .94

